SCP
-0 0 0 0 0 0 0 0 0 0 0 0 0 0 0 0 0 0 0 1 2 3 3 4 4 5 5 6 8 8 7 7 6 6 5 5 4 4 4 5 5 6 6 6
0 0 0 0 0 0 0 0 0 0 0 0 0 0 0 0 0 0 1 1 2 2 3 3 4 4 5 6 7 7 6 6 5 5 5 5 5 4 5 5 6 6 6 6
0 0 0 0 0 0 0 0 0 0 0 0 0 0 0 0 0 0 1 1 1 2 2 2 3 3 4 5 5 5 5 5 4 4 5 5 5 5 5 5 6 6 5 5
0 0 0 0 0 0 0 0 0 0 0 0 0 0 0 0 0 1 1 1 1 1 1 1 1 2 2 3 3 3 3 3 4 4 4 5 5 5 5 6 6 5 5 4
0 0 0 0 0 0 0 0 0 0 0 0 0 0 0 0 0 1 1 1 1 1 1 1 1 1 1 1 1 2 2 3 3 3 4 4 5 5 5 5 5 5 4 4
0 0 0 0 0 0 0 0 0 0 0 0 0 0 0 0 1 1 1 1 0 0 0 0 0 0 0 0 1 1 1 2 2 3 3 4 4 5 5 5 5 5 4 4
0 0 0 0 0 0 0 0 0 0 0 0 0 0 0 0 1 1 1 0 0 0 0 0 0 0 0 0 0 1 1 1 2 2 2 3 3 4 4 4 5 5 4 4
0 0 0 0 0 0 0 0 0 0 0 0 0 0 0 0 1 0 0 0 0 0 0 0 0 0 0 0 0 1 1 1 2 2 2 2 2 3 3 3 4 4 4 4
0 0 0 0 0 0 0 0 0 0 0 0 0 0 0 0 0 0 0 0 0 0 0 0 0 0 0 0 1 1 1 1 1 1 2 2 2 2 2 2 3 3 3 3
0 0 0 0 0 0 0 0 0 0 0 0 0 0 0 0 0 0 0 0 0 0 0 0 0 0 0 0 1 1 1 1 1 1 1 1 1 1 2 2 2 2 2 2
-0 -0 -0 0 0 0 0 0 0 0 0 0 0 0 0 0 0 0 0 0 0 0 0 0 0 0 0 1 1 1 1 1 1 1 1 1 1 1 1 1 1 1 1 1
-0 -0 -0 0 0 0 0 0 0 0 0 0 0 0 0 0 0 0 0 0 0 0 0 0 0 0 0 1 1 1 1 1 1 1 1 1 1 1 1 1 1 1 1 1
-0 -0 0 0 0 0 0 0 0 0 0 0 0 0 0 0 0 0 0 0 0 0 0 0 1 1 1 1 1 1 1 1 1 1 0 0 0 0 0 0 0 0 0 0
-0 0 0 0 0 0 0 0 0 0 0 0 0 0 0 0 0 0 0 0 0 0 0 0 1 1 1 1 1 1 1 1 1 0 0 0 0 0 0 0 0 0 0 0
-0 0 0 0 0 0 0 0 0 0 0 0 0 0 0 0 0 0 0 0 0 0 0 0 1 1 1 1 1 1 1 1 1 0 0 0 0 0 0 0 0 0 0 0
0 0 0 0 0 0 0 0 0 0 0 0 0 0 0 0 0 0 0 0 0 0 0 0 1 1 1 1 1 1 1 1 1 0 0 0 0 0 0 0 0 0 0 0
0 0 0 0 0 0 0 0 0 0 0 0 0 0 0 0 0 0 0 0 0 0 0 0 0 1 1 1 1 1 1 1 1 0 0 0 0 0 0 0 0 0 0 0
0 0 0 0 0 0 0 0 0 0 0 0 0 0 0 0 0 0 0 0 0 0 0 0 0 1 1 1 1 1 1 1 1 0 0 0 0 0 0 0 0 0 0 0
0 0 0 0 0 0 0 0 0 0 0 0 0 0 0 0 0 0 0 0 0 0 0 0 1 1 1 1 1 1 1 1 1 0 0 0 0 0 0 0 0 0 0 0
0 0 0 0 0 0 0 0 0 0 0 0 0 0 0 0 0 0 0 0 0 0 1 1 1 1 1 2 2 1 1 1 0 0 0 0 0 0 0 0 0 0 0 0
0 0 0 0 0 0 0 0 0 0 0 0 0 0 0 0 0 0 0 0 0 0 1 1 1 1 2 2 2 1 1 1 1 0 0 0 0 0 0 0 0 0 0 0
0 0 0 0 0 0 0 0 0 0 0 0 0 0 0 0 0 0 0 0 0 0 0 0 1 1 2 2 2 2 1 1 1 0 0 0 0 0 0 0 0 0 0 0
0 0 0 0 0 0 0 0 0 0 0 0 0 0 0 0 0 0 0 0 0 0 0 0 1 1 2 2 2 2 1 1 1 1 0 0 0 0 0 0 0 0 0 0
0 0 0 0 0 0 0 0 0 0 0 0 0 0 0 0 0 0 0 0 0 0 0 0 0 1 1 2 2 2 1 1 1 1 0 0 0 0 0 0 0 0 0 0
0 0 0 0 0 0 0 0 0 0 0 0 0 0 0 0 0 0 0 0 0 0 0 0 0 0 1 1 1 1 1 1 1 1 0 0 0 0 0 0 0 0 0 0
0 0 0 0 0 0 0 0 0 0 0 0 0 0 0 0 0 0 0 0 0 0 0 0 0 0 0 1 1 1 1 1 1 1 0 0 0 0 0 0 0 0 0 0
Wind_Speed
9 10 10 5 4 10 11 13 13 10 6 4 8 13 15 11 5 4 2 5 7 7 8 9 8 6 3 2 2 3 3 4 4 4 5 6 7 6 5 5 5 5 5 5
7 10 4 7 7 8 9 10 11 12 7 6 9 14 15 13 10 4 1 2 3 4 5 6 6 6 6 4 2 1 2 3 4 4 4 4 4 4 5 4 3 4 5 5
8 4 4 5 7 8 10 9 10 11 12 12 15 18 18 16 11 8 6 4 3 3 4 5 5 6 6 6 5 4 3 3 4 5 4 5 4 4 5 4 4 5 5 5
7 3 2 7 10 8 9 9 10 11 12 13 16 16 14 11 10 11 9 7 5 5 5 5 4 5 5 5 4 4 4 3 4 4 5 7 6 7 7 5 4 5 6 6
7 3 5 9 8 7 9 12 12 14 15 16 16 16 14 11 6 11 10 7 5 5 4 3 3 2 3 4 4 3 3 4 4 4 5 6 7 6 6 5 6 5 5 6
9 5 6 8 8 6 7 10 14 16 14 16 12 12 10 3 8 12 11 8 5 3 2 1 1 1 2 3 3 3 3 3 4 5 5 6 7 7 7 7 6 5 5 6
7 7 5 4 7 5 6 8 8 8 6 5 3 6 8 2 8 9 8 6 4 2 1 1 2 2 2 3 3 3 3 4 4 4 5 6 6 7 8 7 6 5 5 5
6 5 3 3 5 5 5 7 7 9 11 12 11 10 3 9 9 7 4 1 2 4 4 3 4 4 4 5 4 4 3 3 3 4 4 5 6 5 5 5 5 5 4 4
6 6 6 7 6 7 8 8 9 9 13 15 11 7 9 6 4 3 3 4 6 5 4 5 6 5 5 5 5 5 4 4 4 4 5 5 5 4 5 5 4 3 2 3
7 10 11 9 7 8 9 9 7 7 9 12 12 10 3 4 4 4 5 5 5 5 6 6 5 4 3 3 4 4 4 4 4 5 4 4 3 3 3 3 3 2 1 0
9 10 12 11 10 12 9 8 8 8 9 12 14 11 9 6 3 4 6 8 7 7 6 5 4 4 4 4 4 3 3 3 3 4 3 3 3 3 2 2 2 3 3 3
10 9 10 13 14 12 8 8 9 9 11 12 14 14 9 4 4 6 8 8 8 7 6 5 5 4 4 4 4 4 4 3 2 2 2 2 2 2 2 3 4 4 5 5
8 7 11 11 6 5 7 9 11 10 10 12 14 12 6 5 8 8 7 7 6 6 6 4 3 3 4 4 4 4 3 3 2 2 1 1 2 2 3 3 4 4 4 4
4 8 12 14 15 16 15 16 15 14 12 15 17 19 15 13 11 10 7 7 7 6 5 4 3 3 3 3 4 4 3 2 2 2 1 1 2 2 3 3 3 3 3 3
4 9 12 15 18 19 20 19 18 17 16 17 18 18 16 12 11 10 8 8 9 8 7 5 3 2 3 3 3 4 4 2 2 2 2 2 3 3 3 3 3 2 2 2
6 10 14 17 19 19 20 19 18 15 13 14 14 14 14 14 13 11 10 11 11 9 9 6 4 3 3 4 4 4 4 3 3 3 3 3 5 5 4 4 3 2 2 1
10 11 14 16 18 18 15 11 8 8 10 13 14 15 17 16 16 14 12 12 12 10 9 6 4 3 3 4 4 4 4 4 4 4 5 5 6 6 6 6 5 3 2 2
8 7 7 12 15 14 8 11 10 8 12 17 17 18 19 19 18 15 13 13 13 12 10 7 4 3 3 4 4 5 5 5 5 6 6 6 7 7 7 6 6 5 3 3
4 3 7 9 13 13 8 14 12 8 8 19 19 19 21 22 20 15 17 19 15 13 10 7 5 5 4 5 5 6 6 6 6 7 7 7 8 8 8 8 6 5 4 4
7 6 7 10 14 13 9 16 15 10 2 20 21 20 21 22 16 15 21 22 19 15 11 8 7 6 5 5 5 6 7 7 7 7 6 7 8 9 9 8 7 5 5 5
7 8 10 11 13 5 13 15 14 7 11 20 21 21 20 18 17 20 23 21 20 17 14 10 8 7 6 6 7 8 8 7 6 6 6 7 7 8 9 8 7 7 6 6
9 9 9 8 9 4 18 13 11 10 14 16 18 19 20 20 21 21 22 22 21 20 17 13 9 7 6 8 8 9 8 7 6 6 6 7 8 9 9 9 8 7 7 7
6 6 5 6 7 9 14 11 9 10 13 14 16 18 19 20 21 22 21 21 21 21 19 15 14 9 7 8 10 11 9 7 7 6 7 7 8 7 8 10 10 9 7 7
9 11 6 4 10 7 10 11 11 11 13 15 17 18 19 19 21 21 19 18 18 19 19 17 16 14 9 7 10 11 9 8 8 7 7 7 7 7 9 8 8 8 9 8
10 10 8 6 9 10 11 14 14 15 16 17 18 19 19 20 20 20 18 17 16 16 16 16 16 15 13 10 10 11 10 9 9 8 8 8 8 8 8 8 6 8 6 7
7 7 7 5 6 8 11 13 15 17 18 19 20 21 21 20 20 20 18 16 15 15 15 15 16 16 16 13 11 10 10 10 9 9 8 8 8 7 7 8 6 5 4 6
Wind_Direction
216 238 253 278 328 331 324 315 319 316 328 335 298 288 284 285 275 258 333 37 30 27 25 28 17 11 28 95 139 172 205 209 222 225 220 220 229 234 234 227 213 196 186 186
228 242 282 2 335 304 288 287 287 283 284 282 277 276 277 269 260 228 99 45 49 49 49 39 23 13 7 12 12 232 240 243 237 244 250 249 251 249 241 233 209 199 191 190
270 50 36 295 272 269 276 279 293 315 326 305 288 275 264 251 227 171 159 140 98 80 58 48 37 22 9 6 359 344 338 306 281 274 266 265 261 256 253 236 219 211 206 207
276 288 287 281 279 281 290 327 331 314 301 291 291 292 290 274 197 173 154 137 119 90 75 58 44 31 8 358 353 349 338 322 307 294 274 268 261 257 254 244 230 216 212 214
284 287 279 275 284 302 305 318 307 290 281 278 275 274 277 277 198 150 124 115 106 98 84 68 39 33 356 335 336 337 337 326 314 303 290 281 275 273 275 266 246 229 217 216
282 284 270 284 299 290 291 290 281 267 260 264 287 303 295 350 95 117 127 140 147 147 143 99 14 9 335 316 312 318 320 315 308 300 296 290 289 288 283 271 255 237 223 218
286 277 252 242 275 292 294 302 301 303 286 287 355 303 292 99 116 127 143 159 165 152 269 280 305 302 291 289 295 296 296 298 302 301 300 301 296 291 282 276 266 255 236 221
298 307 298 284 306 315 293 290 294 313 315 317 304 272 266 115 103 105 111 164 253 265 268 286 297 294 298 307 307 304 306 303 306 307 309 304 297 291 289 285 279 267 250 233
305 306 301 282 279 290 290 286 301 300 293 291 292 315 84 93 110 134 182 230 250 264 293 301 299 305 316 321 321 319 319 318 322 312 303 292 294 295 300 298 281 270 260 237
288 296 295 284 251 247 251 276 289 286 295 299 303 317 38 162 209 207 233 262 285 303 304 304 306 311 312 311 308 311 315 321 316 308 306 307 323 321 316 321 334 332 301 256
306 293 291 288 271 276 272 263 282 296 295 298 300 303 324 325 308 298 305 306 299 289 292 304 314 318 320 311 310 316 314 315 317 319 319 324 331 337 345 359 9 26 35 40
313 308 306 298 288 285 287 296 295 286 289 292 292 293 309 19 358 310 296 296 299 301 300 300 306 316 319 312 306 305 307 305 304 311 327 349 359 9 21 43 47 49 52 47
346 327 305 296 295 291 287 278 270 266 266 269 275 283 290 294 289 294 304 314 317 311 304 294 290 296 298 294 289 292 296 291 294 303 306 67 80 74 63 62 58 54 56 59
274 276 280 290 300 306 296 288 284 281 279 281 283 292 301 306 308 313 321 322 314 309 303 285 249 246 263 270 270 274 278 267 255 251 255 154 138 126 108 89 75 66 54 56
255 280 285 290 298 299 297 294 291 287 286 288 294 299 310 324 329 330 326 317 308 304 300 290 259 228 238 250 250 246 247 237 241 243 224 176 156 147 134 120 115 107 88 81
306 294 294 288 288 291 290 286 284 286 294 303 313 323 346 348 344 337 332 323 312 302 295 294 290 261 241 242 248 240 232 223 219 223 219 182 164 162 157 154 151 146 145 151
283 291 294 291 298 297 289 298 308 318 336 346 346 351 354 351 350 344 336 323 315 310 304 298 288 264 234 232 230 228 226 218 213 224 214 191 184 179 177 173 165 168 168 168
254 285 286 284 288 283 301 356 351 350 29 20 11 4 359 353 345 334 341 351 340 330 316 308 292 270 241 225 217 215 222 220 218 222 216 197 192 186 180 179 179 180 176 172
161 248 279 284 286 290 338 20 7 350 39 26 7 357 350 343 334 331 349 348 336 324 314 301 274 258 235 219 218 217 223 226 227 226 215 198 191 186 182 186 182 179 173 168
170 202 249 276 291 298 4 4 347 312 297 18 359 352 347 345 335 330 335 329 323 316 306 288 262 244 224 209 208 218 227 230 231 227 212 196 189 186 184 183 178 176 172 169
220 225 244 262 268 283 18 10 357 350 346 351 350 347 345 339 327 323 326 326 323 319 311 298 271 236 216 204 202 215 226 231 231 220 203 189 185 184 180 177 175 172 174 173
296 293 291 297 293 8 18 34 36 355 342 345 344 342 337 330 327 327 327 327 325 325 321 315 301 270 222 200 202 213 220 222 221 210 199 189 184 187 177 171 173 174 175 170
358 352 332 18 60 74 48 45 21 355 343 339 334 332 329 325 324 324 325 326 327 327 326 325 315 292 254 212 205 213 212 208 209 203 197 191 191 190 169 171 175 175 177 177
23 3 351 56 68 54 49 19 2 349 336 328 326 323 321 318 318 318 319 320 323 325 328 327 323 316 297 250 220 210 203 198 201 199 193 186 186 184 174 176 178 180 182 184
7 359 352 20 12 346 358 352 340 332 326 321 317 313 312 312 312 314 314 315 318 319 322 321 320 314 310 295 252 216 201 196 198 196 191 188 188 186 179 180 178 188 187 193
23 17 7 0 345 314 310 314 312 307 304 303 304 305 307 308 308 308 307 308 309 311 315 317 317 315 314 309 285 240 204 194 193 196 193 191 188 184 181 171 151 68 125 139